Temperature
17 17 17 17 17 17 17 17 17 17 17 17 17 17 17 17 17 17 17 17 17 17 18 17 17 17 17 17 17 17 17 17 17 16 16 16 16 16 16 16 16 16 16
17 17 17 17 17 17 17 17 16 16 16 17 17 17 17 17 17 17 17 17 17 17 17 17 17 17 17 17 17 17 17 17 17 17 16 16 16 16 16 16 16 16 16
17 17 17 17 16 16 16 16 16 16 17 17 17 17 17 17 17 17 17 17 17 17 17 17 17 17 17 17 17 17 17 17 17 17 17 16 16 16 16 16 16 16 16
17 17 16 16 16 16 16 16 16 16 16 16 16 17 17 16 16 17 17 17 16 17 17 17 17 17 17 17 17 17 17 16 17 17 16 16 16 16 16 16 16 16 16
16 16 16 16 16 16 16 16 16 16 16 16 16 17 16 16 16 16 16 16 16 16 16 16 16 16 16 16 16 16 16 16 16 16 16 16 16 16 16 16 16 16 16
16 16 16 16 16 16 16 16 16 16 16 16 16 17 17 16 16 16 16 16 16 16 16 16 16 16 16 16 16 16 16 16 16 16 16 16 16 16 16 16 16 16 16
16 16 16 16 15 15 15 15 15 16 16 16 16 16 17 16 16 16 16 16 16 16 16 16 16 16 16 16 16 16 16 16 16 16 16 16 16 16 16 16 16 16 16
16 16 16 15 15 15 15 15 15 15 16 16 16 16 17 16 17 17 16 16 16 16 16 16 16 16 16 16 16 16 16 16 16 16 15 15 16 16 16 16 16 16 16
15 15 15 15 15 15 15 15 15 15 15 16 16 16 16 17 16 16 16 16 16 16 16 16 15 15 15 15 15 15 15 15 15 15 15 15 15 16 16 16 16 16 16
15 15 15 15 15 15 15 15 15 15 15 15 16 16 16 16 16 16 16 16 16 16 16 16 15 15 15 15 15 15 15 15 15 15 15 15 15 15 15 15 15 15 16
16 15 15 15 15 15 15 15 15 15 15 15 15 16 16 16 16 17 16 16 16 16 16 15 15 15 15 15 15 15 15 15 15 15 15 15 15 15 15 15 15 15 15
16 15 15 15 15 15 15 15 15 15 15 15 15 15 15 16 16 16 16 16 16 16 16 16 15 15 15 15 14 15 15 15 15 15 15 15 15 15 15 15 15 15 15
16 16 16 16 15 15 15 14 15 14 14 15 15 15 15 15 15 15 16 16 16 16 16 16 15 15 15 14 14 14 14 14 14 14 15 15 15 15 15 15 15 15 15
17 16 16 16 15 15 15 15 14 14 15 15 15 15 15 15 15 15 15 15 15 16 16 16 15 15 15 14 14 14 14 14 14 14 14 14 14 15 15 15 15 15 15
17 17 16 16 16 16 15 15 15 14 14 15 14 14 15 15 14 14 14 14 14 15 15 16 15 15 15 14 14 14 14 14 14 14 14 14 14 14 14 14 14 14 14
17 17 17 16 16 16 16 15 15 15 15 15 15 14 14 14 14 14 14 14 14 14 14 15 15 15 15 14 14 14 14 14 14 14 14 14 14 14 14 14 14 14 14
17 17 17 17 17 16 16 16 16 15 15 15 15 15 15 15 15 14 14 14 14 14 14 15 15 14 14 14 14 14 13 13 13 13 13 13 14 14 14 14 14 14 14
18 17 17 17 17 17 16 16 16 16 15 15 15 15 15 15 15 15 15 14 14 14 14 14 14 14 14 14 14 13 13 13 13 13 13 13 13 13 13 13 13 14 14
18 17 17 17 17 17 17 17 16 16 16 16 16 16 15 15 15 15 15 15 14 14 14 14 14 14 14 14 13 13 13 13 13 13 13 13 13 13 13 13 13 13 13
18 18 17 17 17 17 17 17 17 17 17 16 16 16 16 15 15 15 15 15 15 14 14 13 13 14 14 14 14 13 13 13 13 13 13 13 13 13 13 13 13 13 13
17 17 17 17 17 17 17 17 17 16 16 16 16 16 16 16 15 15 15 15 14 14 14 13 13 13 14 14 14 14 13 13 13 13 13 13 13 13 13 13 13 13 13
17 17 17 17 17 17 16 16 16 16 16 16 15 15 15 15 15 15 15 15 14 14 14 14 13 13 14 14 14 14 13 13 13 13 13 13 13 13 13 13 13 13 13
17 16 16 16 16 16 16 16 16 15 15 15 15 15 15 14 14 14 14 14 14 14 14 14 13 14 14 14 14 13 13 13 13 13 13 13 13 13 13 12 12 12 12
16 16 16 16 15 15 15 15 15 15 15 15 14 14 14 14 14 14 13 13 14 14 14 14 14 14 14 14 13 13 13 12 12 13 12 12 13 13 12 12 12 12 12
15 15 15 15 15 15 15 14 14 14 14 14 14 13 13 13 13 13 13 13 13 13 13 13 13 13 13 13 13 12 12 11 11 12 12 12 12 12 12 12 12 12 12
14 14 14 14 14 14 14 13 13 13 13 13 13 13 13 12 12 12 12 12 12 13 12 12 12 12 12 13 13 12 12 11 11 11 12 12 12 12 12 12 12 12 12
Wind_Speed
2 3 3 2 1 1 2 1 1 2 1 1 2 1 2 4 3 5 10 12 12 12 11 11 11 11 11 11 11 11 10 9 9 9 9 9 9 9 8 8 7 8 7
4 2 1 1 1 3 3 2 1 1 1 1 1 1 1 2 3 3 6 10 12 12 12 12 12 12 12 12 12 12 11 10 10 10 10 10 10 10 9 9 8 8 8
4 1 1 1 2 2 1 1 0 1 1 1 2 1 1 1 1 2 1 6 9 12 12 12 12 13 12 12 13 13 12 12 11 11 11 11 12 11 11 10 10 9 9
3 2 1 3 1 1 1 1 0 1 1 1 1 0 1 2 1 2 3 4 5 7 11 13 13 13 13 13 14 14 14 13 13 13 12 12 13 13 13 12 11 11 10
2 2 3 3 2 0 1 1 3 3 2 2 1 1 0 1 1 1 1 2 2 5 9 13 14 14 13 13 14 14 14 14 13 13 13 14 14 14 14 14 14 13 13
3 3 3 2 2 2 3 3 3 1 1 2 3 2 1 1 1 1 0 2 3 3 6 9 11 12 13 14 14 15 16 16 15 15 14 14 14 15 16 16 16 15 15
3 3 3 1 1 4 4 3 2 1 2 1 2 1 2 2 2 2 1 1 2 2 3 6 7 7 10 14 14 15 16 17 17 16 15 14 14 15 17 17 17 17 17
3 3 2 1 3 3 3 3 2 3 1 2 1 2 2 2 1 3 3 2 2 2 1 4 4 5 5 8 10 13 14 15 16 16 16 16 16 16 16 17 18 19 19
3 4 2 3 1 1 4 1 2 2 3 1 2 2 3 2 2 2 2 4 2 1 1 1 5 5 4 6 5 7 9 10 13 15 16 17 17 17 17 18 18 19 20
5 5 3 2 2 2 3 1 3 2 2 2 1 2 1 1 2 1 2 4 4 2 1 1 2 3 4 6 7 6 6 6 7 10 12 14 15 16 18 18 18 19 20
5 6 5 4 1 1 3 4 3 3 3 4 3 1 1 1 3 1 1 2 2 3 4 2 0 1 4 6 8 7 6 4 3 5 7 10 12 13 14 15 17 17 18
5 6 6 5 3 2 3 2 1 1 1 4 4 4 2 2 2 2 1 1 1 2 3 2 1 1 2 5 7 9 7 4 3 3 5 7 9 11 12 12 13 15 17
6 7 6 5 4 3 3 3 3 1 1 0 2 4 4 3 3 3 3 3 3 1 2 4 3 4 4 7 10 8 7 6 5 5 5 6 7 9 10 11 12 13 14
5 9 7 6 5 5 5 4 4 4 3 2 3 2 3 4 2 2 2 3 4 3 2 3 3 5 4 5 9 6 7 8 7 7 7 8 8 8 9 10 11 11 12
5 9 8 7 7 6 5 5 4 4 4 4 4 5 4 4 3 3 2 2 2 4 4 1 1 3 6 7 9 7 6 9 11 11 11 11 11 11 10 11 12 12 12
4 7 8 8 8 7 6 6 5 6 5 5 4 4 3 4 4 3 3 3 3 3 4 3 2 2 2 3 7 7 7 10 14 16 16 16 15 14 13 13 13 13 14
6 6 7 8 8 8 8 7 7 6 7 7 6 6 6 6 4 4 3 3 4 4 5 5 4 3 2 3 4 7 10 12 13 19 21 21 19 18 17 16 15 15 15
7 8 8 8 9 9 9 9 9 9 8 8 8 7 7 7 8 6 5 6 5 5 5 6 5 5 6 6 6 6 9 12 13 15 19 21 21 21 20 19 18 18 18
8 9 9 9 9 9 9 9 9 9 9 8 8 9 8 8 8 7 7 7 6 7 5 6 7 6 6 6 6 7 8 7 13 14 17 22 24 24 23 22 22 22 21
9 9 9 9 10 10 9 9 10 10 10 9 9 9 9 9 9 9 9 9 8 7 7 7 7 7 6 7 5 6 6 6 8 10 11 13 19 25 26 26 26 25 25
10 9 9 9 9 10 11 11 10 11 10 10 10 10 11 12 13 11 11 9 9 9 8 8 8 7 7 6 6 6 7 6 6 7 6 6 8 10 16 23 27 27 27
7 8 9 9 10 11 12 14 11 9 9 10 10 10 11 13 15 17 18 16 13 11 10 9 9 9 9 7 6 6 6 6 6 5 5 6 5 6 6 12 19 26 29
4 4 5 6 7 8 9 10 12 9 9 9 9 9 12 14 13 13 15 19 19 20 19 14 13 13 11 8 7 8 7 8 8 5 4 6 6 6 6 14 18 21 25
2 3 4 5 5 7 6 7 8 8 9 10 10 10 10 11 13 11 11 13 14 15 18 17 16 17 15 11 10 10 9 9 8 8 8 9 8 8 9 10 17 19 22
2 3 4 4 4 4 3 4 5 5 7 9 10 11 11 12 14 14 13 13 13 13 17 21 21 20 23 22 15 9 9 10 11 9 9 10 10 9 9 8 13 20 23
3 4 4 4 4 3 2 3 4 4 6 7 8 9 12 11 11 10 10 12 14 14 14 15 14 16 18 19 20 16 14 13 12 10 9 9 9 8 8 8 8 9 13
Wind_Direction
67 80 76 43 312 74 130 168 106 89 137 211 276 285 357 345 5 90 135 158 166 172 177 182 187 189 191 190 188 186 184 183 183 183 184 181 177 175 174 171 166 164 162
71 61 106 103 17 59 50 4 64 109 120 113 277 338 320 327 23 80 152 170 180 183 184 187 192 196 198 197 196 196 193 193 192 193 194 194 191 187 187 186 183 178 176
74 39 133 143 64 82 149 213 254 211 205 180 178 195 216 101 12 4 197 179 184 190 192 195 196 198 202 204 204 202 201 202 200 201 201 202 202 200 198 196 194 191 189
58 344 57 79 32 212 173 161 125 347 36 51 117 329 101 139 169 230 241 202 182 183 195 200 200 201 202 207 209 207 206 208 207 208 208 208 210 211 209 206 204 203 202
66 39 66 57 282 157 75 56 68 30 12 11 284 182 123 111 136 219 198 197 163 172 188 196 201 204 207 211 211 210 210 212 214 216 217 215 214 215 216 215 213 212 211
61 22 110 51 327 63 64 61 54 46 344 319 328 77 57 107 115 74 305 157 160 176 166 180 191 206 214 216 215 212 212 213 217 221 224 224 221 220 221 220 219 219 218
92 10 77 120 31 72 54 48 33 278 240 10 311 241 186 166 144 124 75 51 93 103 123 149 172 189 207 216 215 212 215 217 219 224 228 227 227 226 226 226 225 223 223
162 144 76 135 78 100 73 45 42 339 316 106 313 295 192 153 229 145 138 137 76 45 117 137 149 158 185 185 205 213 215 217 221 225 228 227 229 232 232 231 230 228 227
131 65 75 58 19 160 112 59 17 351 349 3 50 358 351 47 165 139 146 112 114 42 41 140 158 158 165 157 167 193 211 218 225 229 231 230 231 233 234 234 234 232 231
165 157 139 101 349 60 119 195 96 350 325 313 136 126 107 26 337 129 193 148 166 162 109 4 76 128 135 133 137 151 178 202 225 231 233 235 235 235 236 235 236 236 235
184 177 164 159 199 89 95 66 70 2 343 347 348 7 67 234 259 272 161 163 197 174 155 161 177 148 136 141 135 132 142 161 205 229 235 237 238 239 239 239 238 239 239
187 184 179 176 200 167 137 131 135 193 26 15 352 344 342 334 331 333 334 258 214 166 149 141 170 202 173 149 140 138 148 165 193 226 242 245 244 243 242 243 244 245 245
184 181 182 176 198 175 175 172 190 255 199 38 312 315 339 343 357 353 345 330 339 282 191 190 184 192 208 140 138 154 176 184 202 224 243 254 257 254 250 249 250 254 253
183 166 171 176 196 195 199 181 216 204 190 212 255 290 317 305 334 330 327 336 323 302 252 196 167 175 166 138 153 178 194 206 215 227 241 251 256 257 256 256 256 257 258
180 160 172 181 190 199 211 188 224 232 182 202 232 217 228 271 255 267 284 288 295 308 315 252 198 157 166 179 180 203 227 225 223 230 238 244 248 251 253 255 256 255 256
196 163 176 186 193 194 198 213 228 219 216 220 236 261 244 273 282 256 249 258 260 270 285 318 296 222 185 224 195 216 246 246 233 236 240 241 242 244 248 251 254 254 254
199 188 189 193 197 200 199 204 227 229 213 220 229 230 225 237 267 289 272 249 243 243 258 275 282 282 219 227 231 241 258 256 248 244 239 237 237 239 242 246 249 251 252
207 201 200 203 207 207 205 205 216 231 227 223 226 232 233 233 222 235 257 266 257 247 248 267 274 274 257 230 220 222 248 260 260 255 238 233 233 234 237 241 244 246 247
211 211 205 208 213 216 210 210 215 225 232 232 229 229 230 234 236 232 231 243 252 255 238 245 255 250 248 244 233 232 240 246 260 263 242 232 231 233 236 238 241 243 245
210 215 213 212 213 217 219 216 217 221 228 234 235 235 234 231 233 233 239 237 242 253 258 256 256 253 247 238 224 224 242 238 242 253 251 237 230 232 235 237 239 241 243
219 216 217 219 219 221 224 220 220 225 224 230 235 236 240 239 237 237 242 239 236 237 243 247 251 250 245 236 229 221 236 242 239 235 239 237 223 224 231 237 240 243 242
225 221 219 223 226 232 231 222 220 233 232 232 236 238 242 243 242 238 240 243 244 246 248 248 253 252 251 244 238 237 240 246 256 243 237 243 232 233 228 232 234 234 237
232 239 239 236 238 243 246 231 225 233 244 248 248 247 253 255 246 240 237 237 242 243 242 246 255 257 259 260 257 253 245 246 251 250 268 266 252 250 245 256 253 240 232
276 262 261 260 262 265 259 244 238 240 254 258 259 258 258 261 263 261 258 250 240 241 239 241 245 250 253 255 257 258 259 260 256 247 240 255 255 252 255 252 253 245 232
325 301 285 281 276 281 275 251 238 256 261 264 265 266 264 263 262 262 263 264 261 255 249 241 232 235 238 242 244 254 254 254 257 250 230 237 243 243 241 240 242 242 233
329 318 314 307 296 281 277 254 231 262 276 281 280 274 270 272 281 281 272 269 267 265 266 266 253 245 244 245 238 236 242 248 253 255 240 236 240 238 246 238 234 235 230
Height
1558 1559 1560 1560 1561 1562 1563 1563 1564 1564 1565 1566 1567 1568 1569 1570 1571 1572 1572 1573 1575 1577 1578 1579 1581 1583 1584 1586 1588 1590 1591 1593 1595 1596 1598 1599 1601 1602 1603 1604 1605 1606 1607
1558 1558 1559 1559 1560 1561 1561 1563 1563 1564 1564 1565 1566 1567 1568 1569 1570 1571 1572 1573 1574 1575 1576 1578 1580 1581 1583 1585 1587 1589 1590 1592 1594 1595 1597 1598 1600 1601 1602 1604 1605 1606 1607
1557 1558 1559 1559 1559 1560 1561 1562 1563 1563 1564 1565 1566 1566 1567 1568 1569 1570 1571 1572 1573 1574 1575 1576 1578 1580 1582 1583 1585 1587 1589 1590 1592 1594 1596 1597 1599 1600 1602 1603 1604 1605 1606
1556 1557 1558 1558 1559 1559 1561 1562 1562 1563 1564 1565 1565 1566 1567 1567 1568 1568 1569 1571 1571 1572 1573 1574 1576 1578 1579 1581 1583 1585 1586 1588 1590 1592 1594 1595 1597 1599 1600 1601 1603 1604 1605
1556 1557 1557 1557 1558 1560 1560 1561 1561 1562 1563 1564 1565 1566 1567 1567 1567 1568 1569 1569 1570 1571 1572 1573 1574 1576 1577 1579 1580 1582 1584 1586 1587 1589 1591 1593 1595 1596 1598 1599 1601 1602 1603
1555 1556 1557 1557 1558 1559 1559 1560 1561 1562 1563 1563 1565 1566 1566 1566 1567 1567 1568 1569 1570 1570 1571 1571 1572 1573 1575 1576 1578 1579 1581 1583 1584 1586 1588 1590 1592 1594 1596 1597 1598 1600 1601
1555 1556 1556 1557 1557 1558 1558 1559 1560 1561 1563 1563 1564 1565 1565 1566 1567 1567 1568 1568 1569 1570 1570 1571 1571 1572 1573 1574 1575 1576 1578 1579 1581 1583 1584 1586 1588 1590 1592 1594 1596 1597 1598
1555 1556 1556 1557 1557 1557 1558 1558 1559 1561 1562 1563 1564 1564 1565 1567 1566 1567 1568 1568 1569 1569 1570 1570 1571 1571 1572 1572 1573 1574 1575 1576 1578 1579 1581 1583 1585 1587 1589 1590 1592 1594 1595
1555 1555 1556 1556 1557 1558 1558 1558 1559 1560 1562 1563 1563 1564 1564 1565 1566 1567 1568 1568 1568 1569 1569 1570 1570 1570 1571 1571 1571 1572 1572 1573 1574 1576 1577 1579 1581 1583 1584 1586 1588 1589 1591
1554 1555 1555 1555 1556 1557 1557 1558 1558 1560 1561 1562 1563 1564 1564 1565 1566 1567 1568 1568 1568 1568 1569 1569 1569 1569 1569 1569 1569 1570 1571 1571 1572 1573 1574 1575 1577 1578 1580 1581 1583 1585 1586
1554 1554 1555 1555 1556 1556 1557 1557 1558 1559 1560 1561 1562 1563 1564 1565 1565 1567 1567 1567 1567 1567 1567 1568 1568 1568 1568 1568 1567 1568 1568 1569 1570 1570 1571 1572 1573 1574 1575 1577 1578 1579 1581
1553 1553 1554 1554 1555 1556 1556 1556 1557 1558 1559 1560 1561 1562 1563 1564 1565 1565 1566 1566 1566 1566 1566 1566 1567 1567 1567 1566 1566 1566 1566 1566 1567 1567 1568 1568 1569 1570 1571 1572 1573 1574 1575
1551 1552 1553 1553 1554 1554 1555 1556 1556 1557 1558 1558 1560 1561 1562 1563 1563 1564 1564 1565 1565 1565 1565 1564 1564 1565 1565 1565 1564 1564 1563 1563 1563 1564 1564 1564 1565 1566 1566 1567 1568 1569 1570
1551 1551 1552 1552 1552 1553 1554 1554 1556 1556 1556 1557 1558 1559 1560 1561 1562 1563 1563 1563 1563 1563 1563 1563 1562 1562 1563 1562 1562 1561 1560 1560 1560 1560 1560 1560 1561 1561 1562 1562 1563 1563 1564
1549 1549 1550 1550 1550 1551 1552 1553 1554 1555 1556 1556 1557 1558 1558 1559 1560 1561 1561 1562 1563 1562 1562 1561 1561 1561 1560 1560 1559 1558 1558 1557 1556 1556 1556 1556 1556 1556 1557 1557 1557 1558 1559
1547 1547 1547 1548 1548 1549 1550 1551 1552 1553 1553 1554 1555 1555 1556 1557 1558 1558 1559 1559 1560 1560 1559 1559 1559 1559 1558 1558 1557 1555 1554 1553 1552 1551 1551 1551 1551 1551 1551 1552 1552 1553 1553
1544 1545 1545 1546 1546 1547 1548 1548 1549 1551 1551 1551 1552 1553 1553 1554 1554 1555 1555 1556 1556 1557 1556 1555 1556 1555 1554 1554 1553 1552 1550 1549 1548 1547 1547 1547 1546 1546 1546 1546 1546 1547 1547
1540 1541 1542 1543 1543 1544 1545 1546 1546 1547 1548 1549 1549 1550 1550 1551 1551 1551 1551 1551 1552 1552 1552 1551 1550 1550 1550 1549 1548 1547 1546 1545 1544 1544 1543 1542 1542 1541 1541 1540 1540 1540 1541
1537 1537 1538 1539 1540 1541 1542 1542 1543 1544 1544 1545 1546 1546 1546 1547 1547 1547 1547 1547 1547 1547 1547 1547 1545 1545 1545 1545 1544 1542 1541 1540 1540 1539 1538 1537 1537 1536 1536 1535 1535 1534 1535
1533 1533 1534 1535 1536 1537 1538 1539 1539 1540 1540 1541 1541 1542 1542 1542 1542 1542 1542 1542 1542 1542 1542 1541 1540 1540 1540 1539 1539 1537 1536 1535 1535 1534 1534 1532 1531 1531 1530 1530 1529 1529 1528
1529 1529 1530 1531 1532 1532 1533 1534 1534 1535 1535 1536 1536 1536 1537 1537 1537 1537 1537 1537 1537 1536 1536 1535 1534 1534 1534 1534 1533 1532 1531 1530 1530 1529 1528 1527 1526 1525 1524 1524 1523 1523 1522
1524 1525 1525 1526 1527 1528 1529 1529 1530 1530 1530 1530 1530 1530 1531 1531 1531 1531 1530 1531 1531 1530 1529 1529 1528 1527 1527 1527 1527 1527 1526 1525 1523 1524 1523 1521 1521 1519 1518 1518 1517 1517 1516
1519 1520 1521 1521 1522 1523 1524 1524 1524 1525 1525 1524 1524 1524 1524 1524 1524 1524 1523 1523 1523 1522 1522 1521 1520 1519 1519 1520 1521 1520 1518 1517 1516 1516 1516 1514 1514 1512 1512 1511 1511 1511 1510
1515 1516 1517 1517 1517 1518 1518 1519 1519 1518 1518 1518 1518 1517 1517 1517 1517 1517 1516 1514 1513 1513 1513 1512 1510 1510 1511 1511 1512 1512 1511 1509 1508 1507 1508 1505 1504 1504 1504 1504 1504 1503 1503
1511 1512 1512 1513 1513 1513 1513 1513 1512 1512 1511 1510 1510 1510 1509 1508 1508 1508 1507 1505 1504 1503 1503 1502 1501 1500 1501 1501 1502 1502 1501 1500 1498 1497 1499 1497 1496 1496 1495 1495 1495 1495 1495
1509 1509 1509 1509 1508 1508 1507 1507 1507 1506 1504 1504 1503 1503 1502 1501 1500 1499 1498 1496 1494 1493 1494 1493 1492 1491 1490 1490 1491 1491 1490 1490 1488 1487 1489 1490 1488 1488 1487 1487 1487 1487 1487